Terminal Aerodrome Forecast
Issued by NWS

Home | Current Version | Previous Version | Text Only | Print | Product List | Glossary Off
Versions: 1 2 3 4 5 6 7 8 9 10 11 12 13 14 15 16 17 18

672
FTUS43 KBIS 220520
TAFDIK
TAF
KDIK 220520Z 2206/2306 16018G28KT P6SM VCTS OVC020CB
     FM221200 16012KT P6SM BKN015
     FM221700 22011KT P6SM SCT060
     FM222100 27010KT P6SM VCTS SCT060CB BKN100=

USA.gov is the U.S. government's official web portal to all federal, state and local government web resources and services.